Weather History for KSYN - November, 2012

Change the Weather History Date:

Monday, November 19, 2012

  Actual Average (KLVN) Record (KLVN)
Temperature  
Mean Temperature 46 °F -  
Max Temperature 59 °F 39 °F 59 °F (1953)
Min Temperature 34 °F 24 °F 0 °F (1978)
Degree Days  
Heating Degree Days 18    
Moisture  
Dew Point 36 °F    
Average Humidity 61    
Maximum Humidity 91    
Minimum Humidity 43    
Precipitation  
Precipitation 0.00 in - - ()
Sea Level Pressure  
Sea Level Pressure 30.04 in    
Wind  
Wind Speed 9 mph (South)    
Max Wind Speed 13 mph    
Max Gust Speed 21 mph    
Visibility 10 miles    
Events      
Averages and records for this station are not official NWS values.
T = Trace of Precipitation, MM = Missing Value Source: NWS Daily Summary

Daily Weather History Graph

Daily Weather History Graph

Search for Another Location

Airport or City:

Trip Planner

Search our weather history database for the weather conditions in past years. The results will help you decide how hot, cold, wet, or windy it might be!

Date:

Astronomy

Nov. 19, 2012 Rise Set
Actual Time 7:14 AM CST 4:40 PM CST
Civil Twilight 6:42 AM CST 5:12 PM CST
Nautical Twilight 6:06 AM CST 5:47 PM CST
Astronomical Twilight 5:32 AM CST 6:22 PM CST
Moon 12:12 PM CST (11/19) 11:14 PM CST (11/19)
Length of Visible Light 10h 29m
Length of Day
9h 26m
Waxing Crescent, 41% of the Moon is Illuminated
Nov 19
Waxing Crescent
Nov 20
First Quarter
Nov 28
Full
Dec 6
Last Quarter
Dec 13
New

Hourly Weather History & Observations

Time (CST) Temp. Windchill Dew Point Humidity Pressure Visibility Wind Dir Wind Speed Gust Speed Precip Events Conditions
12:12 AM 50.4 °F - 33.4 °F 52% 30.10 in 10.0 mi South 12.7 mph - N/A   Overcast
12:32 AM 50.2 °F - 33.4 °F 53% 30.10 in 10.0 mi South 11.5 mph - N/A   Overcast
12:52 AM 49.6 °F - 33.1 °F 53% 30.09 in 10.0 mi South 12.7 mph 18.4 mph N/A   Mostly Cloudy
1:12 AM 50.0 °F - 33.3 °F 53% 30.09 in 10.0 mi South 11.5 mph - N/A   Overcast
1:32 AM 50.0 °F - 33.1 °F 52% 30.08 in 10.0 mi South 12.7 mph 17.3 mph N/A   Overcast
1:52 AM 50.2 °F - 32.9 °F 52% 30.08 in 10.0 mi South 10.4 mph 18.4 mph N/A   Mostly Cloudy
2:12 AM 50.4 °F - 32.7 °F 51% 30.08 in 10.0 mi South 10.4 mph - N/A   Overcast
2:32 AM 50.0 °F - 32.9 °F 52% 30.08 in 10.0 mi South 8.1 mph - N/A   Overcast
2:53 AM 50.4 °F - 32.7 °F 51% 30.08 in 10.0 mi South 10.4 mph - N/A   Overcast
3:12 AM 50.5 °F - 32.7 °F 51% 30.07 in 10.0 mi South 12.7 mph 17.3 mph N/A   Overcast
3:32 AM 50.9 °F - 33.1 °F 51% 30.06 in 10.0 mi South 11.5 mph 18.4 mph N/A   Overcast
3:53 AM 51.1 °F - 33.3 °F 51% 30.06 in 10.0 mi South 10.4 mph 18.4 mph N/A   Overcast
4:12 AM 51.1 °F - 33.8 °F 52% 30.06 in 10.0 mi South 11.5 mph - N/A   Overcast
4:32 AM 51.3 °F - 34.3 °F 52% 30.06 in 10.0 mi South 11.5 mph - N/A   Overcast
4:52 AM 51.1 °F - 35.2 °F 55% 30.06 in 10.0 mi South 12.7 mph 20.7 mph N/A   Overcast
5:12 AM 49.8 °F - 35.6 °F 58% 30.06 in 10.0 mi South 9.2 mph - N/A   Mostly Cloudy
5:32 AM 48.9 °F - 36.1 °F 61% 30.05 in 10.0 mi South 12.7 mph - N/A   Scattered Clouds
6:12 AM 49.1 °F - 37.6 °F 64% 30.05 in 10.0 mi South 12.7 mph 19.6 mph N/A   Mostly Cloudy
6:32 AM 49.3 °F - 38.5 °F 66% 30.05 in 10.0 mi South 11.5 mph 18.4 mph N/A   Overcast
6:52 AM 48.7 °F - 39.0 °F 69% 30.04 in 10.0 mi South 11.5 mph 18.4 mph N/A   Mostly Cloudy
7:32 AM 48.4 °F - 39.2 °F 71% 30.04 in 10.0 mi South 8.1 mph - N/A   Scattered Clouds
7:52 AM 49.3 °F - 39.6 °F 69% 30.05 in 10.0 mi South 8.1 mph - N/A   Mostly Cloudy
8:12 AM 49.5 °F - 39.4 °F 68% 30.05 in 10.0 mi South 10.4 mph - N/A   Mostly Cloudy
8:32 AM 50.0 °F - 39.4 °F 67% 30.05 in 10.0 mi South 8.1 mph - N/A   Overcast
8:52 AM 50.4 °F - 39.4 °F 66% 30.04 in 10.0 mi South 9.2 mph - N/A   Overcast
9:12 AM 50.9 °F - 39.2 °F 64% 30.04 in 10.0 mi South 10.4 mph - N/A   Scattered Clouds
9:32 AM 52.3 °F - 38.8 °F 60% 30.04 in 10.0 mi South 9.2 mph - N/A   Clear
9:52 AM 53.4 °F - 38.5 °F 57% 30.04 in 10.0 mi South 12.7 mph - N/A   Clear
10:12 AM 54.5 °F - 38.5 °F 55% 30.04 in 10.0 mi South 9.2 mph 18.4 mph N/A   Clear
10:32 AM 55.4 °F - 37.4 °F 51% 30.04 in 10.0 mi South 10.4 mph - N/A   Scattered Clouds
10:52 AM 55.6 °F - 37.4 °F 50% 30.04 in 10.0 mi South 10.4 mph - N/A   Mostly Cloudy
11:12 AM 58.1 °F - 37.2 °F 46% 30.03 in 10.0 mi South 10.4 mph 16.1 mph N/A   Mostly Cloudy
11:32 AM 57.9 °F - 36.9 °F 45% 30.02 in 10.0 mi South 9.2 mph - N/A   Mostly Cloudy
11:52 AM 57.6 °F - 37.2 °F 47% 30.02 in 10.0 mi South 6.9 mph - N/A   Scattered Clouds
12:13 PM 58.5 °F - 37.0 °F 45% 30.02 in 10.0 mi South 9.2 mph - N/A   Mostly Cloudy
12:32 PM 59.0 °F - 37.2 °F 44% 30.02 in 10.0 mi South 9.2 mph - N/A   Mostly Cloudy
12:52 PM 58.8 °F - 37.6 °F 45% 30.01 in 10.0 mi SSE 10.4 mph - N/A   Overcast
1:13 PM 59.2 °F - 37.4 °F 44% 30.00 in 10.0 mi South 11.5 mph - N/A   Mostly Cloudy
1:32 PM 59.9 °F - 37.6 °F 44% 30.00 in 10.0 mi South 6.9 mph - N/A   Scattered Clouds
1:52 PM 59.4 °F - 37.4 °F 44% 30.00 in 10.0 mi SSW 8.1 mph - N/A   Clear
2:13 PM 59.7 °F - 37.4 °F 43% 30.00 in 10.0 mi South 10.4 mph - N/A   Clear
2:32 PM 59.2 °F - 37.6 °F 45% 30.00 in 10.0 mi South 6.9 mph - N/A   Clear
2:52 PM 59.0 °F - 37.6 °F 45% 30.00 in 10.0 mi South 6.9 mph - N/A   Clear
3:13 PM 59.0 °F - 37.9 °F 46% 30.00 in 10.0 mi South 8.1 mph - N/A   Clear
3:32 PM 58.6 °F - 37.8 °F 46% 30.00 in 10.0 mi South 5.8 mph - N/A   Clear
3:52 PM 57.7 °F - 38.1 °F 48% 30.00 in 10.0 mi South 4.6 mph - N/A   Clear
4:13 PM 56.5 °F - 38.3 °F 51% 30.01 in 10.0 mi South 3.5 mph - N/A   Clear
4:32 PM 55.0 °F - 38.3 °F 53% 30.01 in 10.0 mi South 3.5 mph - N/A   Clear
4:52 PM 54.0 °F - 37.9 °F 55% 30.01 in 10.0 mi SSE 3.5 mph - N/A   Clear
5:12 PM 53.1 °F - 37.9 °F 57% 30.01 in 10.0 mi SSE 3.5 mph - N/A   Clear
5:32 PM 50.4 °F - 37.4 °F 61% 30.02 in 10.0 mi Calm Calm - N/A   Clear
5:52 PM 46.4 °F - 36.7 °F 69% 30.02 in 10.0 mi Calm Calm - N/A   Clear
6:12 PM 45.7 °F - 36.9 °F 71% 30.03 in 10.0 mi Calm Calm - N/A   Clear
6:32 PM 46.9 °F - 37.2 °F 69% 30.03 in 10.0 mi Calm Calm - N/A   Clear
6:52 PM 44.6 °F - 36.3 °F 73% 30.03 in 10.0 mi Calm Calm - N/A   Clear
7:12 PM 44.1 °F 42.5 °F 36.9 °F 76% 30.04 in 10.0 mi SW 3.5 mph - N/A   Clear
7:32 PM 41.5 °F - 35.4 °F 79% 30.04 in 10.0 mi Calm Calm - N/A   Clear
7:52 PM 40.3 °F - 34.7 °F 80% 30.03 in 10.0 mi Calm Calm - N/A   Clear
8:12 PM 39.4 °F - 34.7 °F 83% 30.04 in 10.0 mi Calm Calm - N/A   Clear
8:32 PM 40.1 °F - 35.4 °F 83% 30.04 in 10.0 mi Calm Calm - N/A   Clear
8:52 PM 40.8 °F - 36.3 °F 84% 30.04 in 10.0 mi Calm Calm - N/A   Clear
9:12 PM 39.2 °F - 34.7 °F 84% 30.04 in 7.0 mi Calm Calm - N/A   Clear
9:32 PM 38.5 °F - 34.2 °F 84% 30.03 in 10.0 mi Calm Calm - N/A   Clear
9:52 PM 38.5 °F - 34.9 °F 87% 30.03 in 10.0 mi Calm Calm - N/A   Clear
10:12 PM 36.1 °F - 32.4 °F 86% 30.03 in 10.0 mi Calm Calm - N/A   Clear
10:32 PM 36.5 °F 32.7 °F 33.8 °F 90% 30.03 in 7.0 mi SW 4.6 mph - N/A   Clear
10:52 PM 34.3 °F - 32.0 °F 91% 30.04 in 7.0 mi Calm Calm - N/A   Clear
11:12 PM 35.2 °F - 32.5 °F 90% 30.04 in 5.0 mi Calm Calm - N/A   Clear
11:32 PM 34.9 °F - 32.2 °F 90% 30.05 in 7.0 mi Calm Calm - N/A   Clear
11:52 PM 34.9 °F 32.0 °F 32.4 °F 91% 30.06 in 5.0 mi SSW 3.5 mph - N/A   Clear